Starlink 5875

operational
NORAD ID: 57221 Int'l Des: 2023-094 Owner: SPXS Country: US Constellation: starlink
LEOCIRCULAR

Starlink 5875について

説明を読み込み中...

リアルタイム位置

3D地球を読み込み中...

次回通過

高度履歴

Altitude vs Time

uPlot chart will show altitude changes over time

軌道要素

1 57221U 23094D 25258.50388064 -.00000609 00000-0 -30009-4 0 9994
2 57221 43.0022 262.5749 0001019 273.9001 86.1725 15.02532740120762
Epoch: Sep 15, 2025 • Age: 22 hours

現在のステータス

高度 564.5 km
速度 7.58 km/s
衛星直下点 -24.38°S, 79.05°E
打ち上げ日 Jul 7, 2023
運用期間 2.1 years
タイプ internet

技術仕様

分類 Payload
質量 305.00 kg
乾燥質量 290.00 kg
総質量 305.00 kg
長さ 0.20 m
直径 2.80 m
スパン 9.00 m
形状 Box + pan
製造者 SPXS
バスタイプ Starlink
フェーズステータス In Orbit
所有者/国 SPXS/US

大規模コンステレーション

Loading constellations...